Location: LDNL
(36.4545°S, 141.6685°E)
Time: 14:48:15
(UTC+11:00)

Courier 1B Rocket - Pass Details

Date: 02 February 2023
Orbit: 920 x 1202 km, 28.2° (Epoch: 25 March)

Event Time Altitude Azimuth Distance (km) Brightness Sun altitude
Rises 12:55:58 0° 280° (W) 3,990 8.1 67.4°
Reaches altitude 10° 13:01:10 10° 310° (NW) 2,953 7.7 68.0°
Maximum altitude 13:03:27 12° 328° (NNW) 2,794 7.7 68.2°
Drops below altitude 10° 13:05:42 10° 347° (NNW) 2,879 7.9 68.4°
Sets 13:10:36 0° 18° (NNE) 3,748 8.4 68.9°
